Tracking 28565 objects as of 3-Mar-2024
HD Live streaming from Space Station
objects crossing your sky now

STARLINK-6113

Track STARLINK-6113 now!
10-day predictions
STARLINK-6113 is classified as:


NORAD ID: 56113
Int'l Code: 2023-046W
Perigee: 565.3 km
Apogee: 567.1 km
Inclination: 43.0 °
Period: 95.8 minutes
Semi major axis: 6937 km
RCS: Unknown
Launch date: March 29, 2023
Source: United States (US)
Launch site: AIR FORCE EASTERN TEST RANGE (AFETR)
Your satellite tracking list
Your tracking list is empty




NASA's NSSDC Master Catalog

Two Line Element Set (TLE):
1 56113U 23046W   24063.56088538  .00002125  00000-0  17235-3 0  9990
2 56113  43.0023 198.4778 0001287 272.0212  88.0482 15.02537712 51333
Source of the keplerian elements: AFSPC